Location: Forshaga
(59.5328°N, 13.4805°E)
Time: 01:19:31
(UTC+02:00)

ISS - Pass Details

Date: 09 March 2021
Orbit: 418 x 422 km, 51.6° (Epoch: 12 April)

Event Time Altitude Azimuth Distance (km) Brightness Sun altitude
Exits shadow 04:58:08 12° 200° (SSW) 1,379 -1.5 -13.7°
Drops below altitude 10° 04:59:12 10° 181° (S) 1,498 -1.1 -13.5°
Sets 05:02:18 0° 150° (SSE) 2,358 0.3 -13.2°
